Kosmos-911

operational
NORAD ID: 10019 Int'l Des: 1977-039 Owner: VTS Country: SU
LEOCIRCULARPOLAR

关于 Kosmos-911

正在加载描述...

实时位置

正在加载3D地球...

即将过境

高度历史

Altitude vs Time

uPlot chart will show altitude changes over time

两行轨道根数

1 10019U 77039A 26062.52347413 .00000049 00000-0 35241-4 0 9994
2 10019 82.9474 215.0865 0023286 278.8118 148.6093 13.75418938447331
Epoch: Mar 3, 2026 • Age: 24 hours

当前状态

高度 983.0 km
速度 7.37 km/s
星下点 -41.23°S, 42.91°E
发射日期 May 25, 1977
运行时间 48.7 years
类型 other

技术详情

分类 Payload
质量 800.00 kg
干质量 800.00 kg
总质量 800.00 kg
长度 3.00 m
直径 2.00 m
跨度 17.00 m
形状 Cyl + Ant
制造商 NPOPM
平台类型 KAUR-1 11F621
阶段状态 In Orbit
所有者/国家 VTS/SU

大型星座

Loading constellations...